"Platform","Thunder Bay Island"
"Latitude (deg)",45.03472
"Longitude (deg)",-83.19417
"Sensor Device","Campbell CR1000 Logger analog input"
"Sensor Type","Solar panel #1 voltage"
"Sensor Units","voltage"
"Measurement","2 minute average of data samples taken at 5 second interval"
"Time means","Time at beginning of averaging period (UTC time zone)"

"Note:","This data was collected for research purposes."
"Note:","Minimal quality checking has been performed so data may contain known or unknown errors."
"Note:","Data provided by NOAA. Please credit NOAA."
"Note:","For more info see www.glerl.noaa.gov/res/recon"

"Time (UTC)","Solar Panel #1"
"YYYY/MM/DD HH:MM","volts"
2020/11/05 19:20, 16.62932
2020/11/05 19:22, 16.64193
2020/11/05 19:24, 16.75917
2020/11/05 19:26, 16.74991
2020/11/05 19:28, 16.59626
2020/11/05 19:30, 16.5469
2020/11/05 19:32, 16.40633
2020/11/05 19:34, 16.51296
2020/11/05 19:36, 16.7746
2020/11/05 19:38, 16.65056
2020/11/05 19:40, 16.78385
2020/11/05 19:42, 17.01896
2020/11/05 19:44, 17.07635
2020/11/05 19:46, 18.46724
2020/11/05 19:48, 18.00813
2020/11/05 19:50, 17.21457
2020/11/05 19:52, 16.92146
2020/11/05 19:54, 16.81717
2020/11/05 19:56, 16.66538
2020/11/05 19:58, 16.60428
2020/11/05 20:00, 16.50308
2020/11/05 20:02, 16.70857
2020/11/05 20:04, 16.69684
2020/11/05 20:06, 16.70919
2020/11/05 20:08, 16.82582
2020/11/05 20:10, 17.19051
2020/11/05 20:12, 16.8289
2020/11/05 20:14, 17.01587
2020/11/05 20:16, 16.9011
2020/11/05 20:18, 16.70672
2020/11/05 20:20, 16.42718
2020/11/05 20:22, 16.46421
2020/11/05 20:24, 16.57775
2020/11/05 20:26, 16.4784
2020/11/05 20:28, 16.46174
2020/11/05 20:30, 16.69685
2020/11/05 20:32, 16.48457
2020/11/05 20:34, 16.65365
2020/11/05 20:36, 16.5796
2020/11/05 20:38, 16.54875
2020/11/05 20:40, 16.79311
2020/11/05 20:42, 18.35369
2020/11/05 20:44, 20.46842
2020/11/05 20:46, 18.88685
2020/11/05 20:48, 16.55739
2020/11/05 20:50, 16.50247
2020/11/05 20:52, 16.51543
2020/11/05 20:54, 16.62033
2020/11/05 20:56, 17.77796
2020/11/05 20:58, 20.94356
2020/11/05 21:00, 20.95405
2020/11/05 21:02, 20.72327
2020/11/05 21:04, 20.53753
2020/11/05 21:06, 20.41596
2020/11/05 21:08, 20.2981
2020/11/05 21:10, 20.20677
2020/11/05 21:12, 20.15062
2020/11/05 21:14, 20.09694
2020/11/05 21:16, 20.06114
2020/11/05 21:18, 19.9655
2020/11/05 21:20, 19.8933
2020/11/05 21:22, 16.69438
2020/11/05 21:24, 18.56906
2020/11/05 21:26, 19.9402
2020/11/05 21:28, 18.53758
2020/11/05 21:30, 16.96034
2020/11/05 21:32, 19.17132
2020/11/05 21:34, 18.43145
2020/11/05 21:36, 19.50763
2020/11/05 21:38, 19.15836
2020/11/05 21:40, 17.06462
2020/11/05 21:42, 17.41574
2020/11/05 21:44, 16.96898
2020/11/05 21:46, 17.9816
2020/11/05 21:48, 17.22691
2020/11/05 21:50, 17.18249
2020/11/05 21:52, 16.89554
2020/11/05 21:54, 17.13744
2020/11/05 21:56, 16.89863
2020/11/05 21:58, 16.7024
2020/11/05 22:00, 16.61169
2020/11/05 22:02, 16.11926
2020/11/05 22:04, 16.36363
2020/11/05 22:06, 15.82307
2020/11/05 22:08, 15.23561
2020/11/05 22:10, 14.52536
2020/11/05 22:12, 13.97369
2020/11/05 22:14, 13.74414
2020/11/05 22:16, 14.0718
2020/11/05 22:18, 17.07079
2020/11/05 22:20, 16.60552
2020/11/05 22:22, 16.46236
2020/11/05 22:24, 16.00202
2020/11/05 22:26, 15.61511
2020/11/05 22:28, 15.03383
2020/11/05 22:30, 14.28161
2020/11/05 22:32, 13.39981
2020/11/05 22:34, 12.30943
2020/11/05 22:36, 11.02406
2020/11/05 22:38, 9.622686
2020/11/05 22:40, 8.155895
2020/11/05 22:42, 6.679849
2020/11/05 22:44, 5.276
2020/11/05 22:46, 4.02457
2020/11/05 22:48, 2.963845
2020/11/05 22:50, 2.109312
2020/11/05 22:52, 1.461949
2020/11/05 22:54, 0.9818662
2020/11/05 22:56, 0.6393628
2020/11/05 22:58, 0.4085939
2020/11/05 23:00, 0.2487478
2020/11/05 23:02, 0.140119
2020/11/05 23:04, 0.07468872
2020/11/05 23:06, 0.0358063
2020/11/05 23:08, 0.0006174938
2020/11/05 23:10, -0.02283913
2020/11/05 23:12, -0.04136108
2020/11/05 23:14, -0.05247982
2020/11/05 23:16, -0.05803758
2020/11/05 23:18, -0.06421536
2020/11/05 23:20, -0.06977503
2020/11/05 23:22, -0.07409839
2020/11/05 23:24, -0.07471627
2020/11/05 23:26, -0.07409621
2020/11/05 23:28, -0.07409714
2020/11/05 23:30, -0.07533328
2020/11/05 23:32, -0.07471624
2020/11/05 23:34, -0.07656889
2020/11/05 23:36, -0.07595146
2020/11/05 23:38, -0.07718647
2020/11/05 23:40, -0.07718647
2020/11/05 23:42, -0.07842146
2020/11/05 23:44, -0.07533401
2020/11/05 23:46, -0.07780397
2020/11/05 23:48, -0.07656898
2020/11/05 23:50, -0.07533401
2020/11/05 23:52, -0.0759515
2020/11/05 23:54, -0.07780397
2020/11/05 23:56, -0.07656898
2020/11/05 23:58, -0.07533401
2020/11/06 00:00, -0.07780397
2020/11/06 00:02, -0.07965645
2020/11/06 00:04, -0.08583137
2020/11/06 00:06, -0.0759515
2020/11/06 00:08, -0.0759515
2020/11/06 00:10, -0.07780397
2020/11/06 00:12, -0.0759515
2020/11/06 00:14, -0.07471651
2020/11/06 00:16, -0.07533401
2020/11/06 00:18, -0.07409902
2020/11/06 00:20, -0.0759515
2020/11/06 00:22, -0.0759515
2020/11/06 00:24, -0.07533401
2020/11/06 00:26, -0.07286403
2020/11/06 00:28, -0.07718647
2020/11/06 00:30, -0.07471651
2020/11/06 00:32, -0.0759515
2020/11/06 00:34, -0.07471651
2020/11/06 00:36, -0.07471651
2020/11/06 00:38, -0.07409902
2020/11/06 00:40, -0.07471651
2020/11/06 00:42, -0.07533401
2020/11/06 00:44, -0.07348152
2020/11/06 00:46, -0.07471651
2020/11/06 00:48, -0.07533401
2020/11/06 00:50, -0.07842146
2020/11/06 00:52, -0.08027394
2020/11/06 00:54, -0.08089143
2020/11/06 00:56, -0.0827439
2020/11/06 00:58, -0.08150892
2020/11/06 01:00, -0.08459638
2020/11/06 01:02, -0.08521387
2020/11/06 01:04, -0.08953632
2020/11/06 01:06, -0.08397888
2020/11/06 01:08, -0.0827439
2020/11/06 01:10, -0.08706634
2020/11/06 01:12, -0.08706634
2020/11/06 01:14, -0.08459638
2020/11/06 01:16, -0.0827439
2020/11/06 01:18, -0.08336139
2020/11/06 01:20, -0.08150892
2020/11/06 01:22, -0.08027394
2020/11/06 01:24, -0.08150892
2020/11/06 01:26, -0.08397889
2020/11/06 01:28, -0.08336139
2020/11/06 01:30, -0.08027394
2020/11/06 01:32, -0.08150892
2020/11/06 01:34, -0.08336139
2020/11/06 01:36, -0.0827439
2020/11/06 01:38, -0.08150892
2020/11/06 01:40, -0.08027394
2020/11/06 01:42, -0.08150892
2020/11/06 01:44, -0.08150892
2020/11/06 01:46, -0.08212642
2020/11/06 01:48, -0.08027394
2020/11/06 01:50, -0.08150892
2020/11/06 01:52, -0.07718647
2020/11/06 01:54, -0.08089143
2020/11/06 01:56, -0.07965645
2020/11/06 01:58, -0.07903895
2020/11/06 02:00, -0.08150892
2020/11/06 02:02, -0.08583137
2020/11/06 02:04, -0.08891882
2020/11/06 02:06, -0.08212642
2020/11/06 02:08, -0.08027394
2020/11/06 02:10, -0.08336139
2020/11/06 02:12, -0.08027394
2020/11/06 02:14, -0.07903895
2020/11/06 02:16, -0.07780397
2020/11/06 02:18, -0.0827439
2020/11/06 02:20, -0.07780397
2020/11/06 02:22, -0.07348152
2020/11/06 02:24, -0.07409902
2020/11/06 02:26, -0.07348152
2020/11/06 02:28, -0.07471651
2020/11/06 02:30, -0.07471651
2020/11/06 02:32, -0.07409902
2020/11/06 02:34, -0.07471651
2020/11/06 02:36, -0.07409902
2020/11/06 02:38, -0.07409902
2020/11/06 02:40, -0.07409902
2020/11/06 02:42, -0.07409902
2020/11/06 02:44, -0.07286403
2020/11/06 02:46, -0.07409902
2020/11/06 02:48, -0.07471651
2020/11/06 02:50, -0.07409902
2020/11/06 02:52, -0.07409902
2020/11/06 02:54, -0.07348152
2020/11/06 02:56, -0.07409902
2020/11/06 02:58, -0.07409902
2020/11/06 03:00, -0.07471651
2020/11/06 03:02, -0.0759515
2020/11/06 03:04, -0.07965645
2020/11/06 03:06, -0.07409902
2020/11/06 03:08, -0.07471651
2020/11/06 03:10, -0.07718647
2020/11/06 03:12, -0.07842146
2020/11/06 03:14, -0.08089143
2020/11/06 03:16, -0.07348152
2020/11/06 03:18, -0.07409902
2020/11/06 03:20, -0.07224654
2020/11/06 03:22, -0.07409902
2020/11/06 03:24, -0.07409902
2020/11/06 03:26, -0.07409902
2020/11/06 03:28, -0.07409902
2020/11/06 03:30, -0.07471651
2020/11/06 03:32, -0.07409902
2020/11/06 03:34, -0.07286403
2020/11/06 03:36, -0.07471651
2020/11/06 03:38, -0.07471651
2020/11/06 03:40, -0.07471651
2020/11/06 03:42, -0.07348152
2020/11/06 03:44, -0.07348152
2020/11/06 03:46, -0.07409902
2020/11/06 03:48, -0.07409902
2020/11/06 03:50, -0.07348152
2020/11/06 03:52, -0.07348152
2020/11/06 03:54, -0.07348152
2020/11/06 03:56, -0.07409902
2020/11/06 03:58, -0.07348152
2020/11/06 04:00, -0.07533401
2020/11/06 04:02, -0.07409902
2020/11/06 04:04, -0.0759515
2020/11/06 04:06, -0.07471651
2020/11/06 04:08, -0.07348152
2020/11/06 04:10, -0.07533401
2020/11/06 04:12, -0.07656898
2020/11/06 04:14, -0.07348152
2020/11/06 04:16, -0.07409902
2020/11/06 04:18, -0.0759515
2020/11/06 04:20, -0.0759515
2020/11/06 04:22, -0.07471651
2020/11/06 04:24, -0.07348152
2020/11/06 04:26, -0.0759515
2020/11/06 04:28, -0.07533401
2020/11/06 04:30, -0.0759515
2020/11/06 04:32, -0.07718647
2020/11/06 04:34, -0.0759515
2020/11/06 04:36, -0.07471651
2020/11/06 04:38, -0.0759515
2020/11/06 04:40, -0.0759515
2020/11/06 04:42, -0.0759515
2020/11/06 04:44, -0.07409902
2020/11/06 04:46, -0.0759515
2020/11/06 04:48, -0.07533401
2020/11/06 04:50, -0.07533401
2020/11/06 04:52, -0.07533401
2020/11/06 04:54, -0.07533401
2020/11/06 04:56, -0.07471651
2020/11/06 04:58, -0.07409902
2020/11/06 05:00, -0.07409902
2020/11/06 05:02, -0.0759515
2020/11/06 05:04, -0.08089143
2020/11/06 05:06, -0.07471651
2020/11/06 05:08, -0.0759515
2020/11/06 05:10, -0.07656898
2020/11/06 05:12, -0.0759515
2020/11/06 05:14, -0.0759515
2020/11/06 05:16, -0.07533401
2020/11/06 05:18, -0.07471651
2020/11/06 05:20, -0.0759515
2020/11/06 05:22, -0.07533401
2020/11/06 05:24, -0.07471651
2020/11/06 05:26, -0.07471651
2020/11/06 05:28, -0.07471651
2020/11/06 05:30, -0.07409902
2020/11/06 05:32, -0.07471651
2020/11/06 05:34, -0.07409902
2020/11/06 05:36, -0.07409902
2020/11/06 05:38, -0.07348152
2020/11/06 05:40, -0.07409902
2020/11/06 05:42, -0.07471651
2020/11/06 05:44, -0.07348152
2020/11/06 05:46, -0.07409902
2020/11/06 05:48, -0.07409902
2020/11/06 05:50, -0.07286403
2020/11/06 05:52, -0.07348152
2020/11/06 05:54, -0.07348152
2020/11/06 05:56, -0.07348152
2020/11/06 05:58, -0.07224654
2020/11/06 06:00, -0.07409902
2020/11/06 06:02, -0.07471651
2020/11/06 06:04, -0.07533401
2020/11/06 06:06, -0.07348152
2020/11/06 06:08, -0.07409902
2020/11/06 06:10, -0.07471651
2020/11/06 06:12, -0.07471651
2020/11/06 06:14, -0.07409902
2020/11/06 06:16, -0.07348152
2020/11/06 06:18, -0.07162906
2020/11/06 06:20, -0.07224654
2020/11/06 06:22, -0.07224654
2020/11/06 06:24, -0.07039407
2020/11/06 06:26, -0.07286403
2020/11/06 06:28, -0.06730661
2020/11/06 06:30, -0.06854159
2020/11/06 06:32, -0.06730661
2020/11/06 06:34, -0.06730661
2020/11/06 06:36, -0.06421916
2020/11/06 06:38, -0.0679241
2020/11/06 06:40, -0.06421916
2020/11/06 06:42, -0.06915908
2020/11/06 06:44, -0.06607162
2020/11/06 06:46, -0.06607162
2020/11/06 06:48, -0.06483664
2020/11/06 06:50, -0.06545413
2020/11/06 06:52, -0.06668912
2020/11/06 06:54, -0.06545413
2020/11/06 06:56, -0.06483664
2020/11/06 06:58, -0.06483664
2020/11/06 07:00, -0.06421916
2020/11/06 07:02, -0.06360166
2020/11/06 07:04, -0.07101156
2020/11/06 07:06, -0.06113169
2020/11/06 07:08, -0.06113169
2020/11/06 07:10, -0.06360166
2020/11/06 07:12, -0.06607162
2020/11/06 07:14, -0.0605142
2020/11/06 07:16, -0.06174919
2020/11/06 07:18, -0.06236668
2020/11/06 07:20, -0.06421916
2020/11/06 07:22, -0.06915908
2020/11/06 07:24, -0.06977658
2020/11/06 07:26, -0.07039407
2020/11/06 07:28, -0.06977658
2020/11/06 07:30, -0.07162906
2020/11/06 07:32, -0.07224654
2020/11/06 07:34, -0.07162906
2020/11/06 07:36, -0.07162906
2020/11/06 07:38, -0.07039407
2020/11/06 07:40, -0.07286403
2020/11/06 07:42, -0.07348152
2020/11/06 07:44, -0.07348152
2020/11/06 07:46, -0.07409902
2020/11/06 07:48, -0.07286403
2020/11/06 07:50, -0.06854159
2020/11/06 07:52, -0.07039407
2020/11/06 07:54, -0.06915908
2020/11/06 07:56, -0.06854159
2020/11/06 07:58, -0.06545413
2020/11/06 08:00, -0.06360166
2020/11/06 08:02, -0.0679241
2020/11/06 08:04, -0.07286403
2020/11/06 08:06, -0.06483664
2020/11/06 08:08, -0.05927922
2020/11/06 08:10, -0.05989671
2020/11/06 08:12, -0.06174919
2020/11/06 08:14, -0.06113169
2020/11/06 08:16, -0.06360166
2020/11/06 08:18, -0.06421916
2020/11/06 08:20, -0.06298417
2020/11/06 08:22, -0.06607162
2020/11/06 08:24, -0.06607162
2020/11/06 08:26, -0.06545413
2020/11/06 08:28, -0.0605142
2020/11/06 08:30, -0.06113169
2020/11/06 08:32, -0.06483664
2020/11/06 08:34, -0.06298417
2020/11/06 08:36, -0.05989671
2020/11/06 08:38, -0.05927922
2020/11/06 08:40, -0.05927922
2020/11/06 08:42, -0.05927922
2020/11/06 08:44, -0.05927922
2020/11/06 08:46, -0.05989671
2020/11/06 08:48, -0.05927922
2020/11/06 08:50, -0.05927922
2020/11/06 08:52, -0.05989671
2020/11/06 08:54, -0.05927922
2020/11/06 08:56, -0.05866172
2020/11/06 08:58, -0.05866172
2020/11/06 09:00, -0.05927922
2020/11/06 09:02, -0.05989671
2020/11/06 09:04, -0.0605142
2020/11/06 09:06, -0.05866172
2020/11/06 09:08, -0.05866172
2020/11/06 09:10, -0.05927922
2020/11/06 09:12, -0.05989671
2020/11/06 09:14, -0.05742674
2020/11/06 09:16, -0.05680925
2020/11/06 09:18, -0.05186932
2020/11/06 09:20, -0.05495678
2020/11/06 09:22, -0.0531043
2020/11/06 09:24, -0.05248681
2020/11/06 09:26, -0.05680925
2020/11/06 09:28, -0.05063433
2020/11/06 09:30, -0.05001684
2020/11/06 09:32, -0.05248681
2020/11/06 09:34, -0.05372179
2020/11/06 09:36, -0.04939935
2020/11/06 09:38, -0.05125182
2020/11/06 09:40, -0.04816436
2020/11/06 09:42, -0.0450769
2020/11/06 09:44, -0.05001684
2020/11/06 09:46, -0.04939935
2020/11/06 09:48, -0.04631188
2020/11/06 09:50, -0.04631188
2020/11/06 09:52, -0.04939935
2020/11/06 09:54, -0.04445941
2020/11/06 09:56, -0.04692938
2020/11/06 09:58, -0.0450769
2020/11/06 10:00, -0.04692938
2020/11/06 10:02, -0.04878185
2020/11/06 10:04, -0.05619176
2020/11/06 10:06, -0.04692938
2020/11/06 10:08, -0.0456944
2020/11/06 10:10, -0.05063433
2020/11/06 10:12, -0.05063433
2020/11/06 10:14, -0.04445941
2020/11/06 10:16, -0.04631188
2020/11/06 10:18, -0.05742674
2020/11/06 10:20, -0.05866172
2020/11/06 10:22, -0.05742674
2020/11/06 10:24, -0.05804423
2020/11/06 10:26, -0.05495678
2020/11/06 10:28, -0.04878185
2020/11/06 10:30, -0.05680925
2020/11/06 10:32, -0.06236668
2020/11/06 10:34, -0.05866172
2020/11/06 10:36, -0.05742674
2020/11/06 10:38, -0.05742674
2020/11/06 10:40, -0.05927922
2020/11/06 10:42, -0.05495678
2020/11/06 10:44, -0.05433928
2020/11/06 10:46, -0.05680925
2020/11/06 10:48, -0.05866172
2020/11/06 10:50, -0.05927922
2020/11/06 10:52, -0.05866172
2020/11/06 10:54, -0.05927922
2020/11/06 10:56, -0.05927922
2020/11/06 10:58, -0.05866172
2020/11/06 11:00, -0.05927922
2020/11/06 11:02, -0.05989671
2020/11/06 11:04, -0.06174919
2020/11/06 11:06, -0.05927922
2020/11/06 11:08, -0.05866172
2020/11/06 11:10, -0.05927922
2020/11/06 11:12, -0.05927922
2020/11/06 11:14, -0.05804423
2020/11/06 11:16, -0.05372179
2020/11/06 11:18, -0.05001684
2020/11/06 11:20, -0.04754687
2020/11/06 11:22, -0.04445941
2020/11/06 11:24, -0.04445941
2020/11/06 11:26, -0.04013697
2020/11/06 11:28, -0.02963961
2020/11/06 11:30, -0.01790726
2020/11/06 11:32, -0.003087459
2020/11/06 11:34, 0.02346469
2020/11/06 11:36, 0.05989671
2020/11/06 11:38, 0.1018862
2020/11/06 11:40, 0.1728977
2020/11/06 11:42, 0.2791063
2020/11/06 11:44, 0.4378017
2020/11/06 11:46, 0.6650387
2020/11/06 11:48, 1.001572
2020/11/06 11:50, 1.496183
2020/11/06 11:52, 2.195184
2020/11/06 11:54, 3.136241
2020/11/06 11:56, 4.375547
2020/11/06 11:58, 5.996463
2020/11/06 12:00, 7.555012
2020/11/06 12:02, 9.104299
2020/11/06 12:04, 11.33098
2020/11/06 12:06, 12.89817
2020/11/06 12:08, 13.6441
2020/11/06 12:10, 14.67655
2020/11/06 12:12, 15.11311
2020/11/06 12:14, 15.66206
2020/11/06 12:16, 15.83928
2020/11/06 12:18, 16.24745
2020/11/06 12:20, 16.37341
2020/11/06 12:22, 16.6482
2020/11/06 12:24, 16.6624
2020/11/06 12:26, 17.07612
2020/11/06 12:28, 17.2379
2020/11/06 12:30, 16.634
2020/11/06 12:32, 13.51813
2020/11/06 12:34, 13.55395
2020/11/06 12:36, 14.28506
2020/11/06 12:38, 15.49349
2020/11/06 12:40, 15.16313
2020/11/06 12:42, 14.38447
2020/11/06 12:44, 14.40176
2020/11/06 12:46, 14.73768
2020/11/06 12:48, 14.83709
2020/11/06 12:50, 14.96986
2020/11/06 12:52, 15.21623
2020/11/06 12:54, 15.36505
2020/11/06 12:56, 15.56141
2020/11/06 12:58, 15.8047
2020/11/06 13:00, 16.30487
2020/11/06 13:02, 16.28449
2020/11/06 13:04, 16.21534
2020/11/06 13:06, 16.35366
2020/11/06 13:08, 16.32031
2020/11/06 13:10, 16.38576
2020/11/06 13:12, 16.43702
2020/11/06 13:14, 16.47777
2020/11/06 13:16, 16.61732
2020/11/06 13:18, 16.52408
2020/11/06 13:20, 16.63955
2020/11/06 13:22, 16.68093
2020/11/06 13:24, 16.81554
2020/11/06 13:26, 16.88778
2020/11/06 13:28, 16.89643
2020/11/06 13:30, 17.13725
2020/11/06 13:32, 16.99152
2020/11/06 13:34, 16.98226
2020/11/06 13:36, 17.08476
2020/11/06 13:38, 17.16504
2020/11/06 13:40, 17.23852
2020/11/06 13:42, 17.18665
2020/11/06 13:44, 17.26569
2020/11/06 13:46, 17.30521
2020/11/06 13:48, 17.38178
2020/11/06 13:50, 17.54727
2020/11/06 13:52, 17.46267
2020/11/06 13:54, 17.43735
2020/11/06 13:56, 17.36449
2020/11/06 13:58, 17.39289
2020/11/06 14:00, 17.40956
2020/11/06 14:02, 17.42438
2020/11/06 14:04, 17.54665
2020/11/06 14:06, 17.47996
2020/11/06 14:08, 17.43612
2020/11/06 14:10, 17.45835
2020/11/06 14:12, 17.42068
2020/11/06 14:14, 17.59234
2020/11/06 14:16, 17.46082
2020/11/06 14:18, 17.44291
2020/11/06 14:20, 17.49231
2020/11/06 14:22, 17.56209
2020/11/06 14:24, 17.52874
2020/11/06 14:26, 17.49231
2020/11/06 14:28, 17.42542
2020/11/06 14:30, 17.58419
2020/11/06 14:32, 17.44543
2020/11/06 14:34, 17.51649
2020/11/06 14:36, 17.43292
2020/11/06 14:38, 17.5327
2020/11/06 14:40, 17.55966
2020/11/06 14:42, 17.39912
2020/11/06 14:44, 17.40442
2020/11/06 14:46, 17.38352
2020/11/06 14:48, 17.41271
2020/11/06 14:50, 17.48795
2020/11/06 14:52, 17.38809
2020/11/06 14:54, 17.52025
2020/11/06 14:56, 17.38788
2020/11/06 14:58, 17.31421
2020/11/06 15:00, 17.32056
2020/11/06 15:02, 17.24877
2020/11/06 15:04, 17.29742
2020/11/06 15:06, 17.22304
2020/11/06 15:08, 17.1527
2020/11/06 15:10, 17.32048
2020/11/06 15:12, 17.13383
2020/11/06 15:14, 17.1579
2020/11/06 15:16, 17.1182
2020/11/06 15:18, 17.19009
2020/11/06 15:20, 17.07766
2020/11/06 15:22, 17.0665
2020/11/06 15:24, 17.23248
2020/11/06 15:26, 17.09301
2020/11/06 15:28, 17.05414
2020/11/06 15:30, 16.9696
2020/11/06 15:32, 16.97392
2020/11/06 15:34, 17.10906
2020/11/06 15:36, 16.79682
2020/11/06 15:38, 16.84063
2020/11/06 15:40, 16.79188
2020/11/06 15:42, 16.78077
2020/11/06 15:44, 16.84063
2020/11/06 15:46, 16.73819
2020/11/06 15:48, 16.98934
2020/11/06 15:50, 16.77645
2020/11/06 15:52, 16.86284
2020/11/06 15:54, 16.7672
2020/11/06 15:56, 16.72462
2020/11/06 15:58, 18.41479
2020/11/06 16:00, 19.45271
2020/11/06 16:02, 19.39224
2020/11/06 16:04, 19.70016
2020/11/06 16:06, 19.88467
2020/11/06 16:08, 20.00068
2020/11/06 16:10, 20.00685
2020/11/06 16:12, 19.92354
2020/11/06 16:14, 19.89454
2020/11/06 16:16, 19.87232
2020/11/06 16:18, 19.94699
2020/11/06 16:20, 20.10126
2020/11/06 16:22, 20.02227
2020/11/06 16:24, 20.00685
2020/11/06 16:26, 20.02721
2020/11/06 16:28, 20.16605
2020/11/06 16:30, 20.24566
2020/11/06 16:32, 20.29194
2020/11/06 16:34, 20.20925
2020/11/06 16:36, 19.9655
2020/11/06 16:38, 20.10558
2020/11/06 16:40, 20.22961
2020/11/06 16:42, 20.19382
2020/11/06 16:44, 20.19629
2020/11/06 16:46, 20.28206
2020/11/06 16:48, 20.20061
2020/11/06 16:50, 20.24874
2020/11/06 16:52, 20.26293
2020/11/06 16:54, 20.2617
2020/11/06 16:56, 20.27404
2020/11/06 16:58, 20.3086
2020/11/06 17:00, 20.29379
2020/11/06 17:02, 20.21665
2020/11/06 17:04, 20.30058
2020/11/06 17:06, 20.34192
2020/11/06 17:08, 20.36043
2020/11/06 17:10, 20.43078
2020/11/06 17:12, 20.45114
2020/11/06 17:14, 20.47212
2020/11/06 17:16, 20.42954
2020/11/06 17:18, 20.47027
2020/11/06 17:20, 20.43448
2020/11/06 17:22, 20.43448
2020/11/06 17:24, 20.43078
2020/11/06 17:26, 20.43139
2020/11/06 17:28, 20.41967
2020/11/06 17:30, 20.46842
2020/11/06 17:32, 20.50606
2020/11/06 17:34, 20.76647
2020/11/06 17:36, 21.28605
2020/11/06 17:38, 21.2737
2020/11/06 17:40, 21.23236
2020/11/06 17:42, 21.27864
2020/11/06 17:44, 21.18608
2020/11/06 17:46, 21.18484
2020/11/06 17:48, 20.77387
2020/11/06 17:50, 20.45608
2020/11/06 17:52, 20.39746
2020/11/06 17:54, 20.21789
2020/11/06 17:56, 20.15248
2020/11/06 17:58, 20.20616
2020/11/06 18:00, 20.20925
2020/11/06 18:02, 20.33205
2020/11/06 18:04, 20.34562
2020/11/06 18:06, 20.43571
2020/11/06 18:08, 20.47027
2020/11/06 18:10, 20.37709
2020/11/06 18:12, 20.50051
2020/11/06 18:14, 20.49063
2020/11/06 18:16, 20.51594
2020/11/06 18:18, 20.55605
2020/11/06 18:20, 20.42214
2020/11/06 18:22, 20.31785
2020/11/06 18:24, 20.34377
2020/11/06 18:26, 20.25985
2020/11/06 18:28, 20.12533
2020/11/06 18:30, 20.09941
2020/11/06 18:32, 20.06115
2020/11/06 18:34, 20.12224
2020/11/06 18:36, 20.1352
2020/11/06 18:38, 20.19382
2020/11/06 18:40, 20.11977
2020/11/06 18:42, 19.9834
2020/11/06 18:44, 20.12162
2020/11/06 18:46, 20.14631
2020/11/06 18:48, 20.17901
2020/11/06 18:50, 20.15865
2020/11/06 18:52, 20.2691
2020/11/06 18:54, 20.17469
2020/11/06 18:56, 20.15248
2020/11/06 18:58, 20.17901
2020/11/06 19:00, 20.21665
2020/11/06 19:02, 20.22667
2020/11/06 19:04, 20.24998
2020/11/06 19:06, 20.34686
2020/11/06 19:08, 20.2654
2020/11/06 19:10, 20.12409
2020/11/06 19:12, 20.09015
2020/11/06 19:14, 19.98216
2020/11/06 19:16, 20.06979
2020/11/06 19:18, 20.02598
2020/11/06 19:20, 19.91984
2020/11/06 19:22, 19.92169
2020/11/06 19:24, 19.94884
2020/11/06 19:26, 19.90195
2020/11/06 19:28, 19.98216
2020/11/06 19:30, 19.98833
2020/11/06 19:32, 19.89701
2020/11/06 19:34, 19.87356
2020/11/06 19:36, 19.91429
2020/11/06 19:38, 20.04078
2020/11/06 19:40, 20.08275
2020/11/06 19:42, 20.15803
2020/11/06 19:44, 20.09447
2020/11/06 19:46, 20.07287
2020/11/06 19:48, 20.15927
2020/11/06 19:50, 19.95563
2020/11/06 19:52, 19.95316
2020/11/06 19:54, 20.24751
2020/11/06 19:56, 20.14445
2020/11/06 19:58, 20.10805
2020/11/06 20:00, 20.11113
2020/11/06 20:02, 20.14078
2020/11/06 20:04, 20.12903
2020/11/06 20:06, 20.12594
2020/11/06 20:08, 20.18827
2020/11/06 20:10, 20.19259
2020/11/06 20:12, 20.21542
2020/11/06 20:14, 20.17346
2020/11/06 20:16, 20.12533
2020/11/06 20:18, 20.17469
2020/11/06 20:20, 20.18642
2020/11/06 20:22, 20.14692
2020/11/06 20:24, 20.13211
2020/11/06 20:26, 20.1352
2020/11/06 20:28, 20.20493
2020/11/06 20:30, 20.2185
2020/11/06 20:32, 20.20616
2020/11/06 20:34, 20.22221
2020/11/06 20:36, 20.19999
2020/11/06 20:38, 20.18703
2020/11/06 20:40, 20.19012
2020/11/06 20:42, 20.18456
2020/11/06 20:44, 20.11484
2020/11/06 20:46, 20.07658
2020/11/06 20:48, 20.15063
2020/11/06 20:50, 20.26478
2020/11/06 20:52, 20.28823
2020/11/06 20:54, 20.26417
2020/11/06 20:56, 20.32094
2020/11/06 20:58, 20.26972
2020/11/06 21:00, 20.15495
2020/11/06 21:02, 20.26044
2020/11/06 21:04, 20.30675
2020/11/06 21:06, 20.37709
2020/11/06 21:08, 20.34192
2020/11/06 21:10, 19.98772
2020/11/06 21:12, 20.20308
2020/11/06 21:14, 20.2944
2020/11/06 21:16, 20.28145
2020/11/06 21:18, 20.28268
2020/11/06 21:20, 20.28576
2020/11/06 21:22, 20.24442
2020/11/06 21:24, 20.24133
2020/11/06 21:26, 20.24319
2020/11/06 21:28, 20.18086
2020/11/06 21:30, 20.15741
2020/11/06 21:32, 20.02096
2020/11/06 21:34, 20.06979
2020/11/06 21:36, 20.01364
2020/11/06 21:38, 20.00006
2020/11/06 21:40, 19.9439
2020/11/06 21:42, 19.80445
2020/11/06 21:44, 19.26512
2020/11/06 21:46, 19.08